Satellite-Ground Cal/Val Region Overpasses Predictions

Prediction of Satellite NPP Overpassing Cal/Val Region: PacNW

Region Location: (Latitude: 10.00, Longitude: 139.50) to (Latitude: 22.70, Longitude: 165.60).

Table of predicted overpasses for the next 14.0 days since TLE Epoch: 12/14/2019
Interval Starting Time Starting Location Ending Time Ending Location
1 12/14/2019 02:26:33 ( 10.33, 162.99) 12/14/2019 02:30:03 ( 22.66, 160.05)
2 12/14/2019 14:58:21 ( 22.66, 160.28) 12/14/2019 15:01:56 ( 10.04, 157.28)
3 12/15/2019 02:10:07 ( 19.49, 165.59) 12/15/2019 02:11:01 ( 22.66, 164.81)
4 12/15/2019 03:48:56 ( 10.04, 142.44) 12/15/2019 03:52:26 ( 22.37, 139.51)
5 12/15/2019 14:39:19 ( 22.66, 165.04) 12/15/2019 14:42:54 ( 10.03, 162.04)
6 12/15/2019 16:20:49 ( 22.65, 139.66) 12/15/2019 16:21:00 ( 22.00, 139.50)
7 12/16/2019 03:29:53 ( 10.05, 147.20) 12/16/2019 03:33:28 ( 22.67, 144.20)
8 12/16/2019 16:01:46 ( 22.65, 144.42) 12/16/2019 16:05:21 ( 10.02, 141.42)
9 12/17/2019 03:10:51 ( 10.05, 151.95) 12/17/2019 03:14:26 ( 22.67, 148.95)
10 12/17/2019 15:42:44 ( 22.64, 149.18) 12/17/2019 15:46:19 ( 10.02, 146.18)
11 12/18/2019 02:51:48 ( 10.05, 156.71) 12/18/2019 02:55:23 ( 22.67, 153.71)
12 12/18/2019 15:23:40 ( 22.70, 153.95) 12/18/2019 15:27:16 ( 10.02, 150.94)
13 12/19/2019 02:32:46 ( 10.05, 161.47) 12/19/2019 02:36:21 ( 22.68, 158.47)
14 12/19/2019 15:04:38 ( 22.70, 158.71) 12/19/2019 15:08:14 ( 10.02, 155.70)
15 12/20/2019 02:14:31 ( 12.82, 165.59) 12/20/2019 02:17:19 ( 22.68, 163.23)
16 12/20/2019 03:55:13 ( 10.01, 140.87) 12/20/2019 03:56:53 ( 15.88, 139.50)
17 12/20/2019 14:45:35 ( 22.69, 163.47) 12/20/2019 14:49:11 ( 10.01, 160.46)
18 12/21/2019 03:36:10 ( 10.01, 145.62) 12/21/2019 03:39:46 ( 22.69, 142.61)
19 12/21/2019 14:29:41 ( 11.65, 165.59) 12/21/2019 14:30:09 ( 10.01, 165.22)
20 12/21/2019 16:08:03 ( 22.68, 142.85) 12/21/2019 16:11:39 ( 10.00, 139.84)
21 12/22/2019 03:17:08 ( 10.02, 150.38) 12/22/2019 03:20:44 ( 22.70, 147.37)
22 12/22/2019 15:49:00 ( 22.68, 147.61) 12/22/2019 15:52:35 ( 10.06, 144.61)
23 12/23/2019 02:58:05 ( 10.02, 155.14) 12/23/2019 03:01:40 ( 22.64, 152.14)
24 12/23/2019 15:29:58 ( 22.67, 152.37) 12/23/2019 15:33:33 ( 10.05, 149.37)
25 12/24/2019 02:39:03 ( 10.03, 159.90) 12/24/2019 02:42:38 ( 22.65, 156.90)
26 12/24/2019 15:10:55 ( 22.67, 157.13) 12/24/2019 15:14:30 ( 10.05, 154.13)
27 12/25/2019 02:20:00 ( 10.03, 164.66) 12/25/2019 02:23:35 ( 22.66, 161.66)
28 12/25/2019 14:51:53 ( 22.66, 161.89) 12/25/2019 14:55:28 ( 10.04, 158.89)
29 12/26/2019 03:42:28 ( 10.05, 144.04) 12/26/2019 03:46:03 ( 22.67, 141.04)
30 12/26/2019 14:34:03 ( 18.38, 165.59) 12/26/2019 14:36:25 ( 10.04, 163.64)
31 12/26/2019 16:14:20 ( 22.65, 141.27) 12/26/2019 16:16:24 ( 15.37, 139.51)
32 12/27/2019 03:23:25 ( 10.05, 148.80) 12/27/2019 03:27:00 ( 22.68, 145.80)


NCC Satellite Cal/Val Overpasses Prediction Service
